Epoch,demod_status_bits,ebno,lock_status,signal_level,viterbi_ber
1663313338,C;S;V;F,13.4,0x00c000,-38.8,0.00e-0
1663313339,C;S;V;F,12.6,0x00c000,-39.0,3.03e-7
1663313340,,13.5,0x00c000,-38.1,
1663313341,C;S;V;F,12.8,0x00c000,-38.7,4.54e-7
1663313342,C;S;V;F,13.2,0x00c000,-38.8,4.54e-7
1663313343,C;S;V;F,,0x00c000,-38.5,4.54e-7
1663313344,C;S;V;F,12.9,0x00c000,-38.2,0.00e-0
1663313345,C;S;V;F,13.7,0x00c000,,0.00e-0
1663313346,C;S;V;F,13.2,0x00c000,-38.5,0.00e-0
1663313347,C;S;V;F,13.2,0x00c000,-38.2,0.00e-0
1663313348,C;S;V;F,13.4,0x00c000,-39.3,1.51e-7
1663313351,C;S;V;F,13.1,0x00c000,-38.6,0.00e-0
1663313354,,13.7,0x00c000,-38.3,
1663313355,C;S;V;F,13.4,0x00c000,-38.4,0.00e-0
1663313356,C;S;V;F,,0x00c000,-37.9,0.00e-0
1663313357,C;S;V;F,13.9,0x00c000,,0.00e-0
1663313358,C;S;V;F,14.0,0x00c000,-38.1,0.00e-0
1663313359,C;S;V;F,13.6,0x00c000,-38.3,0.00e-0
1663313360,C;S;V;F,14.0,0x00c000,-38.0,0.00e-0
1663313361,C;S;V;F,13.9,0x00c000,-37.9,0.00e-0
1663313362,C;S;V;F,14.1,0x00c000,-37.9,0.00e-0
1663313363,C;S;V;F,14.0,0x00c000,-38.0,0.00e-0
1663313364,C;S;V;F,14.2,0x00c000,-37.9,0.00e-0
1663313365,C;S;V;F,14.0,0x00c000,-37.9,0.00e-0
1663313366,C;S;V;F,14.0,0x00c000,-37.8,
1663313367,,14.3,0x00c000,-38.0,0.00e-0
1663313368,C;S;V;F,14.3,0x00c000,-37.9,0.00e-0
1663313369,C;S;V;F,14.2,0x00c000,-37.5,0.00e-0
1663313370,C;S;V;F,,0x00c000,-37.6,0.00e-0
1663313371,C;S;V;F,14.4,0x00c000,-37.6,0.00e-0
1663313372,C;S;V;F,14.4,0x00c000,,0.00e-0
1663313373,C;S;V;F,14.3,0x00c000,-37.4,0.00e-0
1663313374,C;S;V;F,14.4,0x00c000,-37.7,0.00e-0
1663313375,C;S;V;F,14.4,0x00c000,-37.7,0.00e-0
1663313376,C;S;V;F,14.6,0x00c000,-37.4,0.00e-0
1663313377,C;S;V;F,14.6,0x00c000,-37.4,0.00e-0
1663313378,C;S;V;F,14.8,0x00c000,-37.2,0.00e-0
1663313379,C;S;V;F,14.5,0x00c000,-37.8,0.00e-0
1663313380,C;S;V;F,14.6,0x00c000,-37.4,0.00e-0
1663313381,C;S;V;F,14.9,0x00c000,-37.4,0.00e-0
1663313382,C;S;V;F,14.9,0x00c000,-37.2,0.00e-0
1663313383,C;S;V;F,14.8,0x00c000,-37.2,0.00e-0
1663313384,C;S;V;F,14.9,0x00c000,-37.2,
1663313385,,14.9,0x00c000,-37.4,0.00e-0
1663313386,C;S;V;F,15.0,0x00c000,-37.1,0.00e-0
1663313387,C;S;V;F,,0x00c000,-37.1,0.00e-0
1663313388,C;S;V;F,15.1,0x00c000,-37.1,0.00e-0
1663313389,C;S;V;F,14.9,0x00c000,,0.00e-0
1663313390,C;S;V;F,14.9,0x00c000,-37.1,0.00e-0
1663313391,C;S;V;F,15.1,0x00c000,-37.0,0.00e-0
1663313392,C;S;V;F,15.2,0x00c000,-37.0,0.00e-0
1663313393,C;S;V;F,15.2,0x00c000,-36.9,0.00e-0
1663313394,C;S;V;F,15.3,0x00c000,-36.9,0.00e-0
1663313395,C;S;V;F,15.3,0x00c000,-37.1,0.00e-0
1663313396,C;S;V;F,15.4,0x00c000,-36.7,0.00e-0
1663313397,C;S;V;F,15.6,0x00c000,-36.7,0.00e-0
1663313398,C;S;V;F,15.6,0x00c000,-36.7,0.00e-0
1663313399,C;S;V;F,15.5,0x00c000,-36.8,0.00e-0
1663313400,C;S;V;F,15.4,0x00c000,-36.5,
1663313401,,15.6,0x00c000,-36.7,0.00e-0
1663313402,C;S;V;F,15.4,0x00c000,-36.8,0.00e-0
1663313403,C;S;V;F,15.7,0x00c000,-36.5,0.00e-0
1663313404,C;S;V;F,,0x00c000,-36.6,0.00e-0
1663313405,C;S;V;F,15.7,0x00c000,,0.00e-0
1663313406,C;S;V;F,15.6,0x00c000,-36.5,0.00e-0
1663313407,C;S;V;F,15.9,0x00c000,-36.5,0.00e-0
1663313408,C;S;V;F,15.7,0x00c000,-36.4,0.00e-0
1663313409,C;S;V;F,15.8,0x00c000,-36.4,0.00e-0
1663313410,C;S;V;F,16.0,0x00c000,-36.4,0.00e-0
1663313411,C;S;V;F,15.7,0x00c000,-36.5,0.00e-0
1663313414,C;S;V;F,15.9,0x00c000,-36.4,0.00e-0
1663313415,C;S;V;F,15.7,0x00c000,-36.4,0.00e-0
1663313416,C;S;V;F,16.0,0x00c000,-36.4,0.00e-0
1663313417,C;S;V;F,16.0,0x00c000,-36.3,0.00e-0
1663313418,C;S;V;F,15.9,0x00c000,-36.3,0.00e-0
1663313419,C;S;V;F,15.9,0x00c000,-36.3,
1663313420,,16.0,0x00c000,-36.3,0.00e-0
1663313421,C;S;V;F,16.0,0x00c000,-36.4,0.00e-0
1663313422,C;S;V;F,16.2,0x00c000,-36.1,0.00e-0
1663313423,C;S;V;F,,0x00c000,-36.4,0.00e-0
1663313424,C;S;V;F,16.2,0x00c000,,0.00e-0
1663313425,C;S;V;F,16.2,0x00c000,-36.3,0.00e-0
1663313426,C;S;V;F,15.9,0x00c000,-36.3,0.00e-0
1663313427,C;S;V;F,16.3,0x00c000,-36.2,0.00e-0
1663313428,C;S;V;F,16.2,0x00c000,-36.0,0.00e-0
1663313429,C;S;V;F,16.0,0x00c000,-36.1,0.00e-0
1663313430,C;S;V;F,16.2,0x00c000,-36.0,0.00e-0
1663313431,C;S;V;F,16.2,0x00c000,-36.0,0.00e-0
1663313432,C;S;V;F,16.4,0x00c000,-35.9,
1663313433,,16.4,0x00c000,-35.9,0.00e-0
1663313434,C;S;V;F,16.3,0x00c000,-36.2,0.00e-0
1663313435,C;S;V;F,16.3,0x00c000,-36.0,0.00e-0
1663313436,C;S;V;F,16.4,0x00c000,-35.7,0.00e-0
1663313437,C;S;V;F,,0x00c000,,0.00e-0
1663313438,C;S;V;F,16.5,0x00c000,-35.7,0.00e-0
1663313439,C;S;V;F,16.4,0x00c000,-35.9,0.00e-0
1663313440,C;S;V;F,16.4,0x00c000,-35.8,0.00e-0
1663313441,C;S;V;F,16.3,0x00c000,-35.6,0.00e-0
1663313442,C;S;V;F,16.4,0x00c000,-35.8,0.00e-0
1663313443,C;S;V;F,16.5,0x00c000,-35.8,0.00e-0
1663313444,C;S;V;F,16.5,0x00c000,-35.6,0.00e-0
1663313445,C;S;V;F,16.7,0x00c000,-35.6,0.00e-0
1663313446,,16.7,0x00c000,-35.6,
1663313447,C;S;V;F,16.5,0x00c000,-35.6,0.00e-0
1663313448,C;S;V;F,16.7,0x00c000,-35.8,0.00e-0
1663313449,C;S;V;F,,0x00c000,-35.6,0.00e-0
1663313450,C;S;V;F,16.7,0x00c000,-35.6,0.00e-0
1663313451,C;S;V;F,16.8,0x00c000,-35.5,0.00e-0
1663313452,C;S;V;F,16.6,0x00c000,,0.00e-0
1663313453,C;S;V;F,16.8,0x00c000,-35.5,0.00e-0
1663313454,C;S;V;F,16.8,0x00c000,-35.5,0.00e-0
1663313455,C;S;V;F,16.5,0x00c000,-35.5,0.00e-0
1663313456,C;S;V;F,16.9,0x00c000,-35.3,0.00e-0
1663313457,,17.0,0x00c000,-35.4,
1663313458,C;S;V;F,,0x00c000,-35.4,0.00e-0
1663313459,C;S;V;F,16.8,0x00c000,-35.5,0.00e-0
1663313460,C;S;V;F,16.8,0x00c000,,0.00e-0
1663313461,C;S;V;F,17.0,0x00c000,-35.2,0.00e-0
1663313462,C;S;V;F,17.1,0x00c000,-35.3,0.00e-0
1663313463,C;S;V;F,17.2,0x00c000,-35.2,0.00e-0
1663313464,C;S;V;F,16.9,0x00c000,-35.2,0.00e-0
1663313465,C;S;V;F,16.9,0x00c000,-35.1,0.00e-0
1663313466,C;S;V;F,17.1,0x00c000,-35.1,0.00e-0
1663313467,C;S;V;F,17.1,0x00c000,-35.0,0.00e-0
1663313468,C;S;V;F,17.2,0x00c000,-35.1,0.00e-0
1663313469,C;S;V;F,17.1,0x00c000,-34.9,
1663313470,,17.2,0x00c000,-35.2,0.00e-0
1663313471,C;S;V;F,17.2,0x00c000,-35.0,0.00e-0
1663313472,C;S;V;F,17.2,0x00c000,-34.8,0.00e-0
1663313473,C;S;V;F,,0x00c000,-34.9,0.00e-0
1663313474,C;S;V;F,17.4,0x00c000,,0.00e-0
1663313476,,,0x00c000,-34.9,
1663313477,C;S;V;F,17.4,0x00c000,,0.00e-0
1663313478,C;S;V;F,17.5,0x00c000,-34.8,0.00e-0
1663313479,C;S;V;F,17.6,0x00c000,-34.7,0.00e-0
1663313480,C;S;V;F,17.3,0x00c000,-34.7,0.00e-0
1663313481,C;S;V;F,17.5,0x00c000,-34.7,0.00e-0
1663313482,C;S;V;F,17.7,0x00c000,-34.4,0.00e-0
1663313483,C;S;V;F,17.6,0x00c000,-34.7,0.00e-0
1663313484,C;S;V;F,17.6,0x00c000,-34.4,0.00e-0
1663313485,C;S;V;F,17.7,0x00c000,-34.4,0.00e-0
1663313486,C;S;V;F,17.8,0x00c000,-34.4,
1663313487,,17.9,0x00c000,-34.3,0.00e-0
1663313488,C;S;V;F,17.9,0x00c000,-34.2,0.00e-0
1663313489,C;S;V;F,17.6,0x00c000,-34.4,0.00e-0
1663313490,C;S;V;F,,0x00c000,-34.1,0.00e-0
1663313491,C;S;V;F,18.0,0x00c000,,0.00e-0
1663313492,C;S;V;F,18.1,0x00c000,-34.2,0.00e-0
1663313493,C;S;V;F,18.0,0x00c000,-34.1,0.00e-0
1663313494,C;S;V;F,17.7,0x00c000,-34.0,0.00e-0
1663313495,C;S;V;F,17.9,0x00c000,-34.1,0.00e-0
1663313496,C;S;V;F,17.7,0x00c000,-34.0,0.00e-0
1663313497,C;S;V;F,17.8,0x00c000,-34.0,0.00e-0
1663313498,C;S;V;F,18.1,0x00c000,-34.0,0.00e-0
1663313499,C;S;V;F,18.1,0x00c000,-34.0,0.00e-0
1663313500,C;S;V;F,17.9,0x00c000,-33.9,
1663313501,,17.9,0x00c000,-34.0,0.00e-0
1663313502,C;S;V;F,17.9,0x00c000,-33.9,0.00e-0
1663313503,C;S;V;F,,0x00c000,-33.9,0.00e-0
1663313504,C;S;V;F,18.0,0x00c000,-33.8,0.00e-0
1663313505,C;S;V;F,18.0,0x00c000,-33.6,0.00e-0
1663313506,C;S;V;F,18.1,0x00c000,,0.00e-0
1663313507,C;S;V;F,18.1,0x00c000,-33.6,0.00e-0
1663313508,C;S;V;F,18.3,0x00c000,-33.5,0.00e-0
1663313509,C;S;V;F,18.3,0x00c000,-33.7,0.00e-0
1663313510,C;S;V;F,18.3,0x00c000,-33.6,0.00e-0
1663313511,C;S;V;F,18.3,0x00c000,-33.5,0.00e-0
1663313512,C;S;V;F,18.3,0x00c000,-33.5,0.00e-0
1663313513,C;S;V;F,18.4,0x00c000,-33.3,0.00e-0
1663313514,C;S;V;F,18.5,0x00c000,-33.3,0.00e-0
1663313515,C;S;V;F,18.3,0x00c000,-33.4,
1663313516,,18.3,0x00c000,-33.2,0.00e-0
1663313517,C;S;V;F,18.6,0x00c000,-33.2,0.00e-0
1663313518,C;S;V;F,18.4,0x00c000,-33.3,0.00e-0
1663313519,C;S;V;F,,0x00c000,-33.4,0.00e-0
1663313520,C;S;V;F,18.5,0x00c000,-33.4,0.00e-0
1663313521,C;S;V;F,18.2,0x00c000,,0.00e-0
1663313522,C;S;V;F,18.4,0x00c000,-33.6,0.00e-0
1663313523,C;S;V;F,18.4,0x00c000,-33.6,0.00e-0
1663313524,C;S;V;F,18.3,0x00c000,-33.8,0.00e-0
1663313525,C;S;V;F,18.1,0x00c000,-33.7,0.00e-0
1663313526,C;S;V;F,18.1,0x00c000,-33.7,0.00e-0
1663313527,C;S;V;F,18.4,0x00c000,-33.8,0.00e-0
1663313528,C;S;V;F,18.3,0x00c000,-34.0,0.00e-0
1663313529,C;S;V;F,18.3,0x00c000,-33.9,0.00e-0
1663313530,C;S;V;F,18.1,0x00c000,-33.9,0.00e-0
1663313531,C;S;V;F,18.1,0x00c000,-33.9,0.00e-0
1663313532,,18.1,0x00c000,-34.1,
1663313533,C;S;V;F,18.0,0x00c000,-34.2,0.00e-0
1663313534,C;S;V;F,18.0,0x00c000,-34.0,0.00e-0
1663313535,C;S;V;F,18.1,0x00c000,-34.0,0.00e-0
1663313536,C;S;V;F,,0x00c000,-34.3,0.00e-0
1663313537,C;S;V;F,17.8,0x00c000,,0.00e-0
1663313539,C;S;V;F,17.7,0x00c000,-34.6,0.00e-0
1663313540,,17.4,0x00c000,-35.1,
1663313541,C;S;V;F,17.3,0x00c000,-35.0,0.00e-0
1663313542,C;S;V;F,17.1,0x00c000,-35.2,0.00e-0
1663313543,C;S;V;F,,0x00c000,-35.4,0.00e-0
1663313544,C;S;V;F,17.0,0x00c000,-35.6,0.00e-0
1663313545,C;S;V;F,16.9,0x00c000,-36.0,0.00e-0
1663313546,C;S;V;F,16.7,0x00c000,,0.00e-0
1663313547,C;S;V;F,16.6,0x00c000,-36.1,0.00e-0
1663313548,C;S;V;F,16.4,0x00c000,-36.3,0.00e-0
1663313549,C;S;V;F,16.2,0x00c000,-36.4,0.00e-0
1663313550,C;S;V;F,16.2,0x00c000,-36.7,0.00e-0
1663313551,C;S;V;F,16.1,0x00c000,-36.9,0.00e-0
1663313552,C;S;V;F,15.5,0x00c000,-37.0,0.00e-0
1663313553,C;S;V;F,15.6,0x00c000,-37.2,0.00e-0
1663313554,C;S;V;F,15.5,0x00c000,-37.2,0.00e-0
1663313555,C;S;V;F,15.4,0x00c000,-37.5,0.00e-0
1663313556,C;S;V;F,15.2,0x00c000,-37.6,0.00e-0
1663313557,,15.1,0x00c000,-37.9,
1663313558,C;S;V;F,14.9,0x00c000,-37.9,0.00e-0
1663313559,C;S;V;F,14.8,0x00c000,-38.0,0.00e-0
1663313560,C;S;V;F,,0x00c000,-38.1,0.00e-0
1663313561,C;S;V;F,14.7,0x00c000,-38.4,0.00e-0
1663313562,C;S;V;F,14.5,0x00c000,,0.00e-0
1663313563,C;S;V;F,14.4,0x00c000,-38.3,0.00e-0
1663313564,C;S;V;F,14.2,0x00c000,-38.4,0.00e-0
1663313565,C;S;V;F,14.4,0x00c000,-38.6,0.00e-0
1663313566,C;S;V;F,14.7,0x00c000,-38.4,0.00e-0
1663313567,C;S;V;F,14.6,0x00c000,-38.2,0.00e-0
1663313568,C;S;V;F,14.9,0x00c000,-37.9,0.00e-0
1663313569,C;S;V;F,15.0,0x00c000,-37.9,
1663313570,,15.3,0x00c000,-37.8,0.00e-0
1663313571,C;S;V;F,15.1,0x00c000,-37.5,0.00e-0
1663313572,C;S;V;F,15.5,0x00c000,-37.4,0.00e-0
1663313573,C;S;V;F,,0x00c000,-37.5,0.00e-0
1663313574,C;S;V;F,15.3,0x00c000,-37.4,0.00e-0
1663313575,C;S;V;F,15.3,0x00c000,-37.3,0.00e-0
1663313576,C;S;V;F,15.4,0x00c000,,0.00e-0
1663313577,C;S;V;F,15.4,0x00c000,-37.4,0.00e-0
1663313578,C;S;V;F,15.4,0x00c000,-37.5,0.00e-0
1663313579,C;S;V;F,15.2,0x00c000,-37.6,0.00e-0
1663313580,C;S;V;F,15.4,0x00c000,-37.5,0.00e-0
1663313581,C;S;V;F,15.6,0x00c000,-37.4,0.00e-0
1663313582,C;S;V;F,15.6,0x00c000,-37.2,0.00e-0
1663313583,C;S;V;F,15.6,0x00c000,-36.9,0.00e-0
1663313584,C;S;V;F,15.9,0x00c000,-36.7,0.00e-0
1663313585,,16.1,0x00c000,-36.5,
1663313586,C;S;V;F,16.1,0x00c000,-36.4,0.00e-0
1663313587,C;S;V;F,16.0,0x00c000,-36.5,0.00e-0
1663313588,C;S;V;F,,0x00c000,-36.5,0.00e-0
1663313589,C;S;V;F,16.1,0x00c000,-36.8,0.00e-0
1663313590,C;S;V;F,16.2,0x00c000,,0.00e-0
1663313591,C;S;V;F,16.2,0x00c000,-36.7,0.00e-0
1663313592,C;S;V;F,15.9,0x00c000,-36.7,0.00e-0
1663313593,C;S;V;F,15.9,0x00c000,-36.8,0.00e-0
1663313594,C;S;V;F,15.7,0x00c000,-36.9,0.00e-0
1663313595,C;S;V;F,15.8,0x00c000,-37.1,0.00e-0
1663313596,C;S;V;F,16.0,0x00c000,-37.0,
1663313597,,16.0,0x00c000,-36.6,0.00e-0
1663313598,C;S;V;F,16.2,0x00c000,-36.4,0.00e-0
1663313599,C;S;V;F,17.0,0x00c000,-35.8,0.00e-0
1663313600,C;S;V;F,,0x00c000,,0.00e-0
1663313602,C;S;V;F,17.3,0x00c000,-35.0,0.00e-0
1663313603,C;S;V;F,17.3,0x00c000,-34.9,0.00e-0
1663313604,C;S;V;F,17.1,0x00c000,-34.9,0.00e-0
1663313605,C;S;V;F,17.3,0x00c000,-35.3,0.00e-0
1663313606,C;S;V;F,17.2,0x00c000,-35.5,0.00e-0
1663313607,C;S;V;F,17.0,0x00c000,-35.6,0.00e-0
1663313608,C;S;V;F,17.1,0x00c000,-35.6,
1663313609,,16.8,0x00c000,-35.5,0.00e-0
1663313610,C;S;V;F,16.8,0x00c000,-35.5,0.00e-0
1663313611,C;S;V;F,16.9,0x00c000,-35.3,0.00e-0
1663313612,C;S;V;F,16.9,0x00c000,-35.4,0.00e-0
1663313613,C;S;V;F,,0x00c000,-35.6,0.00e-0
1663313614,C;S;V;F,17.0,0x00c000,,0.00e-0
1663313615,C;S;V;F,16.8,0x00c000,-36.2,0.00e-0
1663313616,C;S;V;F,16.7,0x00c000,-36.1,0.00e-0
1663313617,C;S;V;F,16.4,0x00c000,-36.3,0.00e-0
1663313618,C;S;V;F,16.7,0x00c000,-36.3,0.00e-0
1663313619,C;S;V;F,16.6,0x00c000,-36.3,0.00e-0
1663313620,C;S;V;F,16.3,0x00c000,-36.2,0.00e-0
1663313621,C;S;V;F,16.1,0x00c000,-36.6,0.00e-0
1663313622,C;S;V;F,15.7,0x00c000,-37.0,0.00e-0
1663313623,,15.3,0x00c000,-37.6,
1663313624,C;S;V;F,14.8,0x00c000,-38.1,0.00e-0
1663313625,C;S;V;F,14.5,0x00c000,-38.4,0.00e-0
1663313626,C;S;V;F,14.6,0x00c000,-38.4,0.00e-0
1663313627,C;S;V;F,,0x00c000,-38.3,0.00e-0
1663313628,C;S;V;F,14.6,0x00c000,-38.4,0.00e-0
1663313629,C;S;V;F,14.8,0x00c000,,0.00e-0
1663313630,C;S;V;F,14.4,0x00c000,-38.8,0.00e-0
1663313631,C;S;V;F,14.1,0x00c000,-39.2,0.00e-0
1663313632,C;S;V;F,13.3,0x00c000,-40.0,1.51e-7
1663313633,C;S;V;F,12.6,0x00c000,-40.6,7.57e-7
1663313634,C;S;V;F,12.2,0x00c000,-41.1,2.57e-6
1663313635,C;S;V;F,12.0,0x00c000,-40.8,3.63e-6
1663313636,C;S;V;F,12.1,0x00c000,-40.5,3.17e-6
1663313637,C;S;V;F,12.7,0x00c000,-39.9,9.09e-7
1663313638,C;S;V;F,13.4,0x00c000,-39.6,0.00e-0
1663313639,C;S;V;F,13.2,0x00c000,-39.7,0.00e-0
1663313640,C;S;V;F,13.2,0x00c000,-40.5,
1663313641,C;S;V;F,12.3,0x00c000,-40.8,6.06e-7
1663313642,,12.1,0x00c000,-40.3,1.36e-6
1663313643,C;S;V;F,14.2,0x00c000,-39.2,1.51e-6
1663313644,C;S;V;F,15.0,0x00c000,-38.0,4.54e-7
1663313645,C;S;V;F,,0x00c000,,0.00e-0
1663313646,C;S;V;F,15.4,0x00c000,-37.2,0.00e-0
1663313647,C;S;V;F,15.9,0x00c000,-37.1,0.00e-0
1663313648,C;S;V;F,15.9,0x00c000,-36.8,0.00e-0
1663313649,C;S;V;F,15.9,0x00c000,-36.7,0.00e-0
1663313650,C;S;V;F,16.1,0x00c000,-36.4,0.00e-0
1663313651,C;S;V;F,16.3,0x00c000,-36.3,0.00e-0
1663313652,C;S;V;F,16.8,0x00c000,-36.1,0.00e-0
1663313653,C;S;V;F,16.9,0x00c000,-35.6,0.00e-0
1663313657,C;S;V;F,17.0,0x00c000,-35.3,
1663313658,,17.6,0x00c000,-34.5,0.00e-0
1663313659,C;S;V;F,17.8,0x00c000,-34.0,0.00e-0
1663313660,C;S;V;F,,0x00c000,-34.5,0.00e-0
1663313661,C;S;V;F,17.9,0x00c000,,0.00e-0
1663313662,C;S;V;F,17.5,0x00c000,-34.8,0.00e-0
1663313664,,,0x00c000,-34.7,
1663313665,C;S;V;F,17.6,0x00c000,-34.7,0.00e-0
1663313666,C;S;V;F,17.7,0x00c000,-34.9,0.00e-0
1663313667,C;S;V;F,17.4,0x00c000,,0.00e-0
1663313668,C;S;V;F,17.1,0x00c000,-35.6,0.00e-0
1663313669,C;S;V;F,16.8,0x00c000,-35.8,0.00e-0
1663313670,C;S;V;F,16.6,0x00c000,-35.9,0.00e-0
1663313671,C;S;V;F,17.2,0x00c000,-35.5,0.00e-0
1663313672,C;S;V;F,17.0,0x00c000,-35.5,0.00e-0
1663313673,C;S;V;F,16.6,0x00c000,-36.0,0.00e-0
1663313674,C;S;V;F,16.4,0x00c000,-36.4,
1663313675,,16.1,0x00c000,-36.6,0.00e-0
1663313676,C;S;V;F,16.3,0x00c000,-36.4,0.00e-0
1663313677,C;S;V;F,,0x00c000,-36.3,0.00e-0
1663313678,C;S;V;F,16.3,0x00c000,,0.00e-0
1663313679,C;S;V;F,16.7,0x00c000,-36.3,0.00e-0
1663313680,C;S;V;F,16.4,0x00c000,-36.2,0.00e-0
1663313681,C;S;V;F,16.4,0x00c000,-36.4,0.00e-0
1663313682,C;S;V;F,16.5,0x00c000,-36.4,0.00e-0
1663313683,C;S;V;F,16.6,0x00c000,-36.1,0.00e-0
1663313684,C;S;V;F,16.8,0x00c000,-36.0,0.00e-0
1663313685,C;S;V;F,16.9,0x00c000,-35.6,0.00e-0
1663313686,C;S;V;F,17.1,0x00c000,-35.3,0.00e-0
1663313687,C;S;V;F,17.3,0x00c000,-35.0,0.00e-0
1663313688,,17.0,0x00c000,-35.5,
1663313689,C;S;V;F,16.2,0x00c000,-36.5,0.00e-0
1663313690,C;S;V;F,16.0,0x00c000,-36.9,0.00e-0
1663313691,C;S;V;F,16.6,0x00c000,-36.3,0.00e-0
1663313692,C;S;V;F,,0x00c000,-35.5,0.00e-0
1663313693,C;S;V;F,17.1,0x00c000,,0.00e-0
1663313694,C;S;V;F,16.7,0x00c000,-36.0,0.00e-0
1663313695,C;S;V;F,15.8,0x00c000,-36.7,0.00e-0
1663313696,C;S;V;F,15.5,0x00c000,-37.2,0.00e-0
1663313697,C;S;V;F,16.1,0x00c000,-36.7,0.00e-0
1663313698,C;S;V;F,16.4,0x00c000,-36.4,0.00e-0
1663313699,C;S;V;F,16.4,0x00c000,-36.3,0.00e-0
1663313700,C;S;V;F,16.2,0x00c000,-36.4,0.00e-0
1663313701,C;S;V;F,16.0,0x00c000,-36.7,0.00e-0
1663313702,C;S;V;F,16.7,0x00c000,-36.1,0.00e-0
1663313703,,17.0,0x00c000,-35.9,
1663313704,C;S;V;F,17.1,0x00c000,-35.5,0.00e-0
1663313705,C;S;V;F,18.1,0x00c000,-34.2,0.00e-0
1663313706,C;S;V;F,18.0,0x00c000,-34.3,0.00e-0
1663313707,C;S;V;F,,0x00c000,-34.6,0.00e-0
1663313708,C;S;V;F,17.6,0x00c000,,0.00e-0
1663313709,C;S;V;F,17.9,0x00c000,-34.4,0.00e-0
1663313710,C;S;V;F,17.8,0x00c000,-34.0,0.00e-0
1663313711,C;S;V;F,17.8,0x00c000,-34.3,0.00e-0
1663313712,C;S;V;F,18.0,0x00c000,-34.4,0.00e-0
1663313713,C;S;V;F,18.2,0x00c000,-34.1,0.00e-0
1663313714,C;S;V;F,17.9,0x00c000,-34.0,0.00e-0
1663313715,C;S;V;F,18.1,0x00c000,-34.3,0.00e-0
1663313716,C;S;V;F,18.0,0x00c000,-34.7,0.00e-0
1663313717,C;S;V;F,17.3,0x00c000,-35.5,0.00e-0
1663313718,,17.2,0x00c000,-35.2,
1663313719,C;S;V;F,17.0,0x00c000,-35.3,0.00e-0
1663313720,C;S;V;F,16.1,0x00c000,-36.4,0.00e-0
1663313721,C;S;V;F,16.5,0x00c000,-36.4,0.00e-0
1663313722,C;S;V;F,,0x00c000,,0.00e-0
1663313723,C;S;V;F,16.7,0x00c000,-36.1,0.00e-0
1663313724,C;S;V;F,16.0,0x00c000,-36.9,0.00e-0
1663313725,C;S;V;F,15.2,0x00c000,-37.9,0.00e-0
1663313727,,,0x00c000,-36.4,
1663313728,C;S;V;F,16.6,0x00c000,,0.00e-0
1663313729,C;S;V;F,16.8,0x00c000,-36.2,0.00e-0
1663313730,C;S;V;F,15.8,0x00c000,-37.2,0.00e-0
1663313731,C;S;V;F,15.5,0x00c000,-37.2,0.00e-0
1663313732,C;S;V;F,16.3,0x00c000,-36.6,0.00e-0
1663313733,C;S;V;F,16.1,0x00c000,-36.9,
1663313734,,15.6,0x00c000,-37.2,0.00e-0
1663313735,C;S;V;F,15.7,0x00c000,-36.9,0.00e-0
1663313736,C;S;V;F,16.0,0x00c000,-36.8,0.00e-0
1663313737,C;S;V;F,,0x00c000,-36.8,0.00e-0
1663313738,C;S;V;F,16.2,0x00c000,,0.00e-0
1663313739,C;S;V;F,16.3,0x00c000,-36.6,0.00e-0
1663313740,C;S;V;F,15.9,0x00c000,-36.8,0.00e-0
1663313741,C;S;V;F,16.8,0x00c000,-36.3,0.00e-0
1663313742,C;S;V;F,17.1,0x00c000,-35.3,0.00e-0
1663313743,C;S;V;F,17.4,0x00c000,-35.0,0.00e-0
1663313744,C;S;V;F,17.2,0x00c000,-35.1,0.00e-0
1663313745,C;S;V;F,16.7,0x00c000,-35.9,0.00e-0
1663313746,C;S;V;F,17.1,0x00c000,-35.4,0.00e-0
1663313747,C;S;V;F,17.7,0x00c000,-34.7,0.00e-0
1663313748,C;S;V;F,18.0,0x00c000,-34.4,
1663313749,C;S;V;F,17.7,0x00c000,-34.5,0.00e-0
1663313750,,18.1,0x00c000,-33.8,0.00e-0
1663313751,C;S;V;F,18.4,0x00c000,-33.3,0.00e-0
1663313752,C;S;V;F,18.5,0x00c000,-33.4,0.00e-0
1663313753,C;S;V;F,,0x00c000,-33.1,0.00e-0
1663313754,C;S;V;F,18.6,0x00c000,,0.00e-0
1663313755,C;S;V;F,18.7,0x00c000,-32.3,0.00e-0
1663313756,C;S;V;F,18.9,0x00c000,-32.3,0.00e-0
1663313757,C;S;V;F,19.0,0x00c000,-32.3,0.00e-0
1663313758,,19.4,0x00c000,-31.3,
1663313759,C;S;V;F,19.3,0x00c000,-31.7,0.00e-0
1663313760,C;S;V;F,18.9,0x00c000,-32.2,0.00e-0
1663313761,C;S;V;F,,0x00c000,,0.00e-0
1663313762,C;S;V;F,19.2,0x00c000,-32.1,0.00e-0
1663313763,C;S;V;F,19.2,0x00c000,-31.8,0.00e-0
1663313764,C;S;V;F,19.3,0x00c000,-32.5,0.00e-0
1663313765,C;S;V;F,19.1,0x00c000,-32.4,0.00e-0
1663313766,C;S;V;F,19.2,0x00c000,-32.3,0.00e-0
1663313767,C;S;V;F,19.1,0x00c000,-32.3,0.00e-0
1663313768,C;S;V;F,18.8,0x00c000,-32.7,0.00e-0
1663313769,C;S;V;F,18.5,0x00c000,-33.2,0.00e-0
1663313770,,18.2,0x00c000,-34.0,
1663313771,C;S;V;F,17.7,0x00c000,-34.8,0.00e-0
1663313772,C;S;V;F,17.6,0x00c000,-34.4,0.00e-0
1663313773,C;S;V;F,,0x00c000,-34.1,0.00e-0
1663313774,C;S;V;F,18.1,0x00c000,-35.5,0.00e-0
1663313775,C;S;V;F,17.6,0x00c000,,0.00e-0
1663313776,C;S;V;F,16.2,0x00c000,-37.8,0.00e-0
1663313777,C;S;V;F,15.1,0x00c000,-38.2,0.00e-0
1663313778,C;S;V;F,15.3,0x00c000,-37.5,0.00e-0
1663313779,C;S;V;F,15.4,0x00c000,-37.7,0.00e-0
1663313780,C;S;V;F,14.8,0x00c000,-38.1,0.00e-0
1663313781,C;S;V;F,14.7,0x00c000,-38.2,0.00e-0
1663313782,C;S;V;F,14.2,0x00c000,-38.8,0.00e-0
1663313783,,13.3,0x00c000,-40.2,
1663313784,C;S;V;F,12.7,0x00c000,-40.4,0.00e-0
1663313785,C;S;V;F,13.4,0x00c000,-39.6,4.54e-7
1663313786,C;S;V;F,13.8,0x00c000,-39.3,7.57e-7
1663313787,C;S;V;F,,0x00c000,-40.1,0.00e-0
1663313788,C;S;V;F,12.9,0x00c000,,0.00e-0
1663313790,,14.0,0x00c000,-39.5,
1663313791,C;S;V;F,14.9,0x00c000,-38.2,1.12e-5
1663313792,C;S;V;F,14.1,0x00c000,-38.6,3.03e-7
1663313793,C;S;V;F,12.9,0x00c000,-40.3,0.00e-0
1663313794,C;S;V;F,,0x00c000,-39.3,0.00e-0
1663313795,C;S;V;F,13.7,0x00c000,,1.51e-7
1663313796,C;S;V;F,15.7,0x00c000,-36.8,0.00e-0
1663313797,C;S;V;F,16.8,0x00c000,-36.0,0.00e-0
1663313798,C;S;V;F,17.2,0x00c000,-35.5,0.00e-0
1663313799,C;S;V;F,17.2,0x00c000,-35.7,0.00e-0
1663313800,C;S;V;F,16.9,0x00c000,-35.7,0.00e-0
1663313801,C;S;V;F,16.9,0x00c000,-36.0,0.00e-0
1663313802,C;S;V;F,17.1,0x00c000,-36.0,0.00e-0
1663313803,C;S;V;F,17.6,0x00c000,-35.1,0.00e-0
1663313804,C;S;V;F,18.1,0x00c000,-33.8,
1663313805,,18.6,0x00c000,-33.1,0.00e-0
1663313806,C;S;V;F,18.4,0x00c000,-33.2,0.00e-0
1663313807,C;S;V;F,17.7,0x00c000,-34.7,0.00e-0
1663313808,C;S;V;F,,0x00c000,-36.4,0.00e-0
1663313809,C;S;V;F,16.4,0x00c000,-36.6,0.00e-0
1663313810,C;S;V;F,16.3,0x00c000,,0.00e-0
1663313811,C;S;V;F,17.3,0x00c000,-35.3,0.00e-0
1663313812,C;S;V;F,18.1,0x00c000,-33.6,0.00e-0
1663313813,C;S;V;F,18.5,0x00c000,-33.2,0.00e-0
1663313814,C;S;V;F,18.5,0x00c000,-33.4,0.00e-0
1663313815,C;S;V;F,18.3,0x00c000,-34.0,0.00e-0
1663313816,C;S;V;F,17.6,0x00c000,-35.4,0.00e-0
1663313817,C;S;V;F,16.7,0x00c000,-35.7,0.00e-0
1663313818,C;S;V;F,16.8,0x00c000,-36.3,0.00e-0
1663313819,C;S;V;F,16.7,0x00c000,-36.3,0.00e-0
1663313820,,17.2,0x00c000,-35.5,
1663313821,C;S;V;F,17.7,0x00c000,-34.1,0.00e-0
1663313822,C;S;V;F,18.2,0x00c000,-33.4,0.00e-0
1663313823,C;S;V;F,,0x00c000,-33.1,0.00e-0
1663313824,C;S;V;F,18.4,0x00c000,,0.00e-0
1663313825,C;S;V;F,18.1,0x00c000,-33.7,0.00e-0
1663313826,C;S;V;F,17.7,0x00c000,-34.7,0.00e-0
1663313827,C;S;V;F,17.2,0x00c000,-35.6,0.00e-0
1663313828,C;S;V;F,16.6,0x00c000,-36.1,0.00e-0
1663313829,C;S;V;F,16.7,0x00c000,-35.8,0.00e-0
1663313830,C;S;V;F,16.9,0x00c000,-35.0,0.00e-0
1663313831,C;S;V;F,17.7,0x00c000,-34.2,0.00e-0
1663313832,C;S;V;F,17.7,0x00c000,-33.9,
1663313833,,18.1,0x00c000,-33.9,0.00e-0
1663313834,C;S;V;F,17.7,0x00c000,-34.4,0.00e-0
1663313835,C;S;V;F,17.6,0x00c000,-34.7,0.00e-0
1663313836,C;S;V;F,,0x00c000,-35.3,0.00e-0
1663313837,C;S;V;F,17.0,0x00c000,,0.00e-0
1663313838,C;S;V;F,16.9,0x00c000,-36.0,0.00e-0
1663313839,C;S;V;F,16.7,0x00c000,-36.3,0.00e-0
1663313840,C;S;V;F,16.9,0x00c000,-35.9,0.00e-0
1663313841,C;S;V;F,16.9,0x00c000,-35.4,0.00e-0
1663313842,C;S;V;F,17.3,0x00c000,-35.0,0.00e-0
1663313843,C;S;V;F,17.7,0x00c000,-34.4,0.00e-0
1663313844,C;S;V;F,17.7,0x00c000,-34.4,
1663313845,C;S;V;F,17.7,0x00c000,-34.5,0.00e-0
1663313846,,17.2,0x00c000,-35.0,0.00e-0
1663313847,C;S;V;F,17.2,0x00c000,-35.4,0.00e-0
1663313848,C;S;V;F,16.6,0x00c000,-35.9,0.00e-0
1663313849,C;S;V;F,,0x00c000,-36.2,0.00e-0
1663313850,C;S;V;F,16.6,0x00c000,,0.00e-0
1663313851,C;S;V;F,16.5,0x00c000,-36.1,0.00e-0
1663313853,C;S;V;F,16.6,0x00c000,-36.3,0.00e-0
1663313854,C;S;V;F,16.5,0x00c000,-36.4,0.00e-0
1663313855,,15.9,0x00c000,-37.0,
1663313856,C;S;V;F,15.6,0x00c000,-37.1,0.00e-0
1663313857,C;S;V;F,15.4,0x00c000,-37.5,0.00e-0
1663313858,C;S;V;F,,0x00c000,-37.9,0.00e-0
1663313859,C;S;V;F,15.4,0x00c000,,0.00e-0
1663313860,C;S;V;F,15.1,0x00c000,-37.2,0.00e-0
1663313861,C;S;V;F,15.7,0x00c000,-36.9,0.00e-0
1663313862,C;S;V;F,16.0,0x00c000,-36.4,0.00e-0
1663313863,C;S;V;F,16.7,0x00c000,-36.0,0.00e-0
1663313864,C;S;V;F,16.8,0x00c000,-35.9,0.00e-0
1663313865,C;S;V;F,17.0,0x00c000,-35.5,0.00e-0
1663313866,,16.6,0x00c000,-36.0,
1663313867,C;S;V;F,16.6,0x00c000,-36.2,0.00e-0
1663313868,C;S;V;F,16.3,0x00c000,-36.3,0.00e-0
1663313869,C;S;V;F,,0x00c000,-36.4,0.00e-0
1663313870,C;S;V;F,16.2,0x00c000,-36.5,0.00e-0
1663313871,C;S;V;F,16.2,0x00c000,-36.8,0.00e-0
1663313872,C;S;V;F,16.1,0x00c000,-36.6,0.00e-0
1663313873,C;S;V;F,16.1,0x00c000,,0.00e-0
1663313874,C;S;V;F,16.0,0x00c000,-36.4,0.00e-0
1663313875,C;S;V;F,16.4,0x00c000,-36.3,0.00e-0
1663313876,C;S;V;F,16.3,0x00c000,-36.2,0.00e-0
1663313877,C;S;V;F,16.8,0x00c000,-35.6,0.00e-0
1663313878,C;S;V;F,17.0,0x00c000,-35.6,0.00e-0
1663313879,C;S;V;F,17.1,0x00c000,-35.3,0.00e-0
1663313880,C;S;V;F,17.1,0x00c000,-35.2,0.00e-0
1663313881,C;S;V;F,17.2,0x00c000,-35.0,0.00e-0
1663313882,C;S;V;F,17.4,0x00c000,-34.8,0.00e-0
1663313883,,17.6,0x00c000,-34.7,